Погода в Воскресенском

Россия / Курганская область     54°38′21″N   65°46′44″E
темп.,
°C
ветер,
м/с
пор.,
м/с
влажн.,
%
обл.,
%
осадки,
мм/ч
давл.,
гПа
погр.,
м
21 января, чт
чт2123:00−15зюз6119498 0.2 1013512
02:00−18юз6119698 0.0 1014258
05:00−20юз5109596 0.0 1015196
08:00−22зюз479718 0.0 1013122
11:00−20зюз510929 0.0 1015288
14:00−19зюз489232 0.0 1014442
17:00−19з499567 0.1 1015467
20:00−23з479763 0.0 1015120
22 января, пт
пт2223:00−24зюз479844 0.0 101687
02:00−24зюз449889 0.0 101680
05:00−23зюз349987 0.1 101672
08:00−23зюз359997 0.0 101685
11:00−22з349897 0.1 1017114
14:00−19з349695 0.1 1018248
17:00−20з239898 0.2 102049
20:00−21сз239893 0.1 102227
23 января, сб
сб2323:00−26ссв349891 0.1 102465
02:00−30ссв349652 0.0 102734
05:00−31с339629 0.0 103033
08:00−32с34970 0.0 103431
11:00−31с35960 0.0 1036130
14:00−30ссз239434 0.0 1037202
17:00−34ссз229731 0.0 103919
20:00−33с009490 0.0 104019
24 января, вс
вс2423:00−32юз229395 0.0 104019
02:00−31ююз2294100 0.0 104055
05:00−29ю2495100 0.0 1040145
08:00−28ююв3598100 0.3 1040178
11:00−25ююв4697100 0.4 1040228
14:00−23юв4696100 0.1 1039251
17:00−24юв479799 0.1 1038193
20:00−23юв479896 0.0 1039188
25 января, пн
пн2523:00−22юв489798 0.1 1038201
02:00−21ююв4797100 0.0 1036191
05:00−19ю489699 0.0 1034230
08:00−18ю499692 0.0 1032214
11:00−13ююз589596 0.3 1030252
14:00−7юз5109599 0.4 1028286
17:00−3зюз499599 0.9 1028277
20:00−3з5109493 0.0 1028244